Location: Newark
(13.8117°N, 3.6025°W)
Time: 19:01:58
(UTC+00:00)

Explorer 11/Cluster Stage 4 - Pass Details

Date: 02 September 2019
Orbit: 467 x 1260 km, 28.8° (Epoch: 21 September)

Event Time Altitude Azimuth Distance (km) Brightness Sun altitude
Rises 07:44:08 0° 295° (WNW) 3,259 9.3 23.6°
Reaches altitude 10° 07:47:04 10° 312° (NW) 2,477 8.8 24.3°
Maximum altitude 07:51:33 21° 0° (N) 2,004 8.9 25.4°
Drops below altitude 10° 07:56:42 10° 47° (NE) 2,901 10.3 26.7°
Sets 08:00:30 0° 62° (ENE) 3,989 11.2 27.6°
